Weather History for KADF - February, 2014

Change the Weather History Date:

Monday, February 10, 2014

  Actual Average Record
Temperature  
Mean Temperature 34 °F -  
Max Temperature 36 °F - - ()
Min Temperature 30 °F - - ()
Degree Days  
Heating Degree Days 32    
Moisture  
Dew Point 24 °F    
Average Humidity 68    
Maximum Humidity 81    
Minimum Humidity 49    
Precipitation  
Precipitation 0.00 in - - ()
Sea Level Pressure  
Sea Level Pressure 30.32 in    
Wind  
Wind Speed 8 mph (NE)    
Max Wind Speed 14 mph    
Max Gust Speed -    
Visibility 10 miles    
Events      
Averages and records for this station are not official NWS values.
T = Trace of Precipitation, MM = Missing Value Source: NWS Daily Summary

Daily Weather History Graph

Daily Weather History Graph

Search for Another Location

Airport or City:

Trip Planner

Search our weather history database for the weather conditions in past years. The results will help you decide how hot, cold, wet, or windy it might be!

Date:

Astronomy

Feb. 10, 2014 Rise Set
Actual Time 7:01 AM CST 5:51 PM CST
Civil Twilight 6:36 AM CST 6:17 PM CST
Nautical Twilight 6:06 AM CST 6:46 PM CST
Astronomical Twilight 5:37 AM CST 7:16 PM CST
Moon 2:25 PM CST (2/10) 3:51 AM CST (2/10)
Length of Visible Light 11h 41m
Length of Day
10h 49m
Waxing Gibbous, 85% of the Moon is Illuminated
Feb 10
Waxing Gibbous
Feb 14
Full
Feb 22
Last Quarter
Mar 1
New
Mar 8
First Quarter

Hourly Weather History & Observations

Time (CST) Temp. Windchill Dew Point Humidity Pressure Visibility Wind Dir Wind Speed Gust Speed Precip Events Conditions
12:27 AM 35.6 °F 30.7 °F 28.4 °F 75% 30.21 in 10.0 mi NE 5.8 mph - N/A   Mostly Cloudy
12:56 AM 34.9 °F 28.3 °F 29.1 °F 79% 30.27 in 10.0 mi NE 8.1 mph - N/A   Overcast
1:56 AM 34.9 °F 28.3 °F 29.1 °F 79% 30.29 in 10.0 mi NE 8.1 mph - N/A   Mostly Cloudy
2:56 AM 34.0 °F 28.0 °F 28.0 °F 79% 30.29 in 10.0 mi NE 6.9 mph - N/A   Mostly Cloudy
3:14 AM 33.8 °F 28.6 °F 28.4 °F 81% 30.25 in 10.0 mi NE 5.8 mph - N/A   Scattered Clouds
3:56 AM 34.0 °F 27.2 °F 28.0 °F 79% 30.30 in 10.0 mi NE 8.1 mph - N/A   Mostly Cloudy
4:56 AM 34.0 °F 27.2 °F 28.0 °F 79% 30.29 in 10.0 mi NE 8.1 mph - N/A   Overcast
5:56 AM 34.0 °F 26.6 °F 27.1 °F 76% 30.30 in 10.0 mi ENE 9.2 mph - N/A   Overcast
6:56 AM 32.9 °F 27.5 °F 27.1 °F 79% 30.32 in 10.0 mi NE 5.8 mph - N/A   Mostly Cloudy
7:31 AM 33.8 °F 25.3 °F 24.8 °F 70% 30.29 in 10.0 mi NE 11.5 mph - N/A   Mostly Cloudy
7:56 AM 32.9 °F 24.1 °F 24.1 °F 70% 30.33 in 10.0 mi NE 11.5 mph - N/A   Clear
8:56 AM 32.9 °F 24.7 °F 22.1 °F 65% 30.37 in 10.0 mi NE 10.4 mph - N/A   Overcast
9:56 AM 32.9 °F 23.7 °F 23.0 °F 67% 30.38 in 10.0 mi NE 12.7 mph - N/A   Mostly Cloudy
10:56 AM 32.9 °F 26.7 °F 23.0 °F 67% 30.38 in 10.0 mi ENE 6.9 mph - N/A   Scattered Clouds
11:56 AM 32.9 °F 24.1 °F 24.1 °F 70% 30.37 in 10.0 mi NE 11.5 mph - N/A   Scattered Clouds
12:56 PM 34.0 °F 26.0 °F 24.1 °F 67% 30.35 in 10.0 mi NE 10.4 mph - N/A   Scattered Clouds
1:16 PM 33.8 °F 25.8 °F 23.0 °F 65% 30.29 in 10.0 mi NE 10.4 mph - N/A   Mostly Cloudy
1:24 PM 33.8 °F 26.4 °F 23.0 °F 65% 30.29 in 10.0 mi NE 9.2 mph - N/A   Mostly Cloudy
1:56 PM 34.9 °F 27.7 °F 24.1 °F 65% 30.32 in 10.0 mi NE 9.2 mph - N/A   Mostly Cloudy
2:56 PM 34.9 °F 27.1 °F 22.1 °F 60% 30.32 in 10.0 mi NE 10.4 mph - N/A   Partly Cloudy
3:56 PM 34.9 °F 29.0 °F 23.0 °F 62% 30.32 in 10.0 mi NE 6.9 mph - N/A   Partly Cloudy
4:56 PM 36.0 °F 32.1 °F 24.1 °F 62% 30.32 in 10.0 mi East 4.6 mph - 0.00 in   Clear
5:56 PM 36.0 °F 31.1 °F 24.1 °F 62% 30.32 in 10.0 mi ENE 5.8 mph - N/A   Partly Cloudy
6:56 PM 34.9 °F 28.3 °F 20.1 °F 55% 30.34 in 10.0 mi ENE 8.1 mph - N/A   Clear
7:56 PM 32.9 °F 25.3 °F 21.0 °F 62% 30.35 in 10.0 mi ENE 9.2 mph - N/A   Partly Cloudy
8:56 PM 32.9 °F 23.7 °F 22.1 °F 65% 30.36 in 10.0 mi NE 12.7 mph - N/A   Mostly Cloudy
9:56 PM 32.0 °F 23.0 °F 20.1 °F 62% 30.37 in 10.0 mi NE 11.5 mph - N/A   Mostly Cloudy
10:56 PM 31.1 °F 20.9 °F 19.0 °F 61% 30.37 in 10.0 mi NE 13.8 mph - N/A   Overcast
11:56 PM 30.0 °F 21.1 °F 13.1 °F 49% 30.38 in 10.0 mi NE 10.4 mph - N/A   Overcast